TimeCST,TemperatureF,Dew PointF,Humidity,Sea Level PressureIn,VisibilityMPH,Wind Direction,Wind SpeedMPH,Gust SpeedMPH,PrecipitationIn,Events,Conditions,WindDirDegrees,DateUTC
12:58 AM,64.6,57.0,76,30.02,10.0,SE,16.1,-,N/A,,Overcast,130,2013-03-08 06:58:00
1:58 AM,64.8,57.9,78,30.01,10.0,SE,15.0,-,N/A,,Overcast,140,2013-03-08 07:58:00
2:53 AM,64.4,59.0,83,30.02,10.0,SSE,16.1,-,N/A,,Overcast,150,2013-03-08 08:53:00
2:58 AM,64.8,58.6,81,30.00,10.0,SSE,15.0,-,N/A,,Overcast,150,2013-03-08 08:58:00
3:03 AM,64.4,59.0,83,30.02,10.0,SSE,15.0,-,N/A,,Overcast,150,2013-03-08 09:03:00
3:13 AM,64.4,59.0,83,30.02,10.0,SE,13.8,-,N/A,,Overcast,140,2013-03-08 09:13:00
3:58 AM,64.9,59.4,82,29.98,10.0,SE,16.1,-,N/A,,Overcast,140,2013-03-08 09:58:00
4:58 AM,65.1,59.9,83,29.96,10.0,SE,16.1,-,N/A,,Overcast,140,2013-03-08 10:58:00
5:43 AM,64.4,59.0,83,30.02,10.0,SE,12.7,-,N/A,,Overcast,130,2013-03-08 11:43:00
5:58 AM,64.9,59.9,84,30.00,10.0,SE,10.4,-,N/A,,Overcast,140,2013-03-08 11:58:00
6:13 AM,64.4,60.8,88,30.03,10.0,SE,11.5,-,N/A,,Overcast,140,2013-03-08 12:13:00
6:23 AM,64.4,60.8,88,30.03,10.0,SE,11.5,-,N/A,,Overcast,140,2013-03-08 12:23:00
6:33 AM,64.4,60.8,88,30.03,10.0,SE,10.4,-,N/A,,Overcast,140,2013-03-08 12:33:00
6:43 AM,64.4,60.8,88,30.03,10.0,SE,11.5,-,N/A,,Overcast,140,2013-03-08 12:43:00
6:58 AM,64.6,60.3,86,30.01,10.0,SE,11.5,-,N/A,,Overcast,130,2013-03-08 12:58:00
7:13 AM,64.4,60.8,88,30.03,10.0,SE,10.4,-,N/A,,Overcast,130,2013-03-08 13:13:00
7:38 AM,64.4,60.8,88,30.03,10.0,ESE,12.7,-,N/A,,Overcast,120,2013-03-08 13:38:00
7:58 AM,64.6,60.3,86,30.01,10.0,SE,12.7,-,N/A,,Overcast,130,2013-03-08 13:58:00
8:58 AM,65.3,60.6,85,30.01,10.0,SE,16.1,-,N/A,,Overcast,130,2013-03-08 14:58:00
9:28 AM,66.2,60.8,83,30.04,10.0,SE,15.0,-,N/A,,Mostly Cloudy,140,2013-03-08 15:28:00
9:33 AM,66.2,60.8,83,30.05,10.0,SE,17.3,-,N/A,,Mostly Cloudy,140,2013-03-08 15:33:00
9:58 AM,67.1,60.1,78,30.04,10.0,SSE,15.0,-,N/A,,Overcast,150,2013-03-08 15:58:00
10:58 AM,67.5,60.4,78,30.02,10.0,SE,15.0,-,N/A,,Overcast,140,2013-03-08 16:58:00
11:13 AM,68.0,60.8,78,30.04,10.0,SE,12.7,-,N/A,,Overcast,130,2013-03-08 17:13:00
11:58 AM,68.5,60.1,74,30.01,10.0,SE,15.0,-,N/A,,Overcast,140,2013-03-08 17:58:00
12:28 PM,69.8,60.8,73,30.01,10.0,SE,11.5,-,N/A,,Mostly Cloudy,130,2013-03-08 18:28:00
12:58 PM,70.2,60.3,71,29.98,10.0,SE,16.1,-,N/A,,Overcast,130,2013-03-08 18:58:00
1:03 PM,69.8,60.8,73,30.00,10.0,SE,15.0,-,N/A,,Overcast,140,2013-03-08 19:03:00
1:08 PM,69.8,60.8,73,30.00,10.0,SE,16.1,-,N/A,,Overcast,140,2013-03-08 19:08:00
1:33 PM,69.8,60.8,73,29.97,10.0,SE,15.0,-,N/A,,Overcast,140,2013-03-08 19:33:00
1:38 PM,69.8,60.8,73,29.96,10.0,SE,13.8,-,N/A,,Overcast,130,2013-03-08 19:38:00
1:58 PM,71.1,59.9,68,29.94,10.0,SSE,15.0,-,N/A,,Overcast,160,2013-03-08 19:58:00
2:08 PM,71.6,59.0,64,29.96,10.0,SSE,16.1,-,N/A,,Overcast,150,2013-03-08 20:08:00
2:23 PM,71.6,59.0,64,29.95,10.0,SE,17.3,-,N/A,,Overcast,140,2013-03-08 20:23:00
2:58 PM,72.3,59.5,64,29.93,10.0,SE,18.4,-,N/A,,Mostly Cloudy,140,2013-03-08 20:58:00
3:58 PM,73.6,58.8,60,29.90,10.0,SSE,20.7,-,N/A,,Mostly Cloudy,150,2013-03-08 21:58:00
4:58 PM,73.9,58.5,58,29.90,10.0,SE,19.6,-,N/A,,Overcast,140,2013-03-08 22:58:00
5:58 PM,73.6,57.7,58,29.90,10.0,SE,17.3,-,N/A,,Mostly Cloudy,130,2013-03-08 23:58:00
6:58 PM,72.7,57.0,58,29.90,10.0,SSE,13.8,-,N/A,,Overcast,150,2013-03-09 00:58:00
7:58 PM,72.3,57.9,60,29.91,10.0,SSE,12.7,-,N/A,,Overcast,150,2013-03-09 01:58:00
8:58 PM,71.4,57.9,62,29.91,10.0,SSE,10.4,-,N/A,,Overcast,160,2013-03-09 02:58:00
9:58 PM,71.1,58.5,64,29.91,10.0,SE,15.0,-,N/A,,Overcast,140,2013-03-09 03:58:00
10:58 PM,69.6,61.7,76,29.90,10.0,SE,20.7,27.6,N/A,,Mostly Cloudy,140,2013-03-09 04:58:00
11:13 PM,68.0,60.8,78,29.93,10.0,SE,18.4,28.8,N/A,,Mostly Cloudy,130,2013-03-09 05:13:00
11:18 PM,68.0,60.8,78,29.93,10.0,SE,20.7,27.6,N/A,,Mostly Cloudy,140,2013-03-09 05:18:00
11:28 PM,68.0,60.8,78,29.92,10.0,SE,17.3,28.8,N/A,,Mostly Cloudy,130,2013-03-09 05:28:00
11:33 PM,68.0,60.8,78,29.92,10.0,SE,17.3,-,N/A,,Scattered Clouds,130,2013-03-09 05:33:00
11:43 PM,68.0,60.8,78,29.92,10.0,SE,17.3,-,N/A,,Mostly Cloudy,130,2013-03-09 05:43:00
11:58 PM,67.6,61.7,81,29.88,10.0,SE,18.4,-,N/A,,Mostly Cloudy,140,2013-03-09 05:58:00